STARLINK-32352, 61847

Orbit data source: Space-Track

STARLINK-32352, 61847 is a payload satellite owned by SpaceX/Seattle (US) in LEO that was launched on Thu, 07 Nov 2024 UTC via an FALCON 9 launch vehicle from the Air Force Eastern Test Range (AFETR). Payload-class satellites include a variety of spacecraft equipped with specific instruments for various scientific and technological missions. These include communications satellites like Starlink; space stations such as the ISS; scientific satellites like the Hubble; Earth observation satellites from companies like Planet Labs, Umbra, and HawkEye 360; GPS; miniature CubeSats for education and research; and military/defense satellites.

Loading next visibility...
Identifier
61847, 2024-202C
Orbit
LEO
Last TLE update
23 hours ago
Origin
Manufacturer
SpaceX/Seattle
Mission
Operational Commercial Communications
Bus & Motor
STARLINK V2M, Unknown motor
Mass
730 kg wet, ~700 kg dry
Launch date (UTC)
2024-11-07 (8 months ago)
Launch vehicle
FALCON 9
Launch site
Air Force Eastern Test Range (AFETR)
Object type
Payload
Rocket body
Debris
Shape & HBR
Box + 2 Pan, 29 m
Radar Cross Section
33.884 m², Large (>1 m²)

Expand to show TLE details & history

TLE from 23 hours ago
0 STARLINK-32352
1 61847U 24202C   25186.04097258 -.00000341  00000-0 -28564-5 0  9993
2 61847  42.9993 185.2782 0001118 285.5105  74.5623 15.27573412 37592
Epoch: 2025-07-05T00:59Z
TLE epoch observation values (Epoch: 2025-07-05T00:59:00.03Z)
Latitude
-0.00005°
Longitude
-112.75669°
Altitude
482.64 km
Speed
7.626 km/s
True Right ascension
12h 21m 06s
True Declination
0° 00' 00"
Sunlit
Object was in daylight at epoch
Visualization orbit readout
Latitude
-24.97783°
Longitude
-148.04783°
Altitude
488.546 km
Speed
7.622 km/s
Apparent Right ascension
06h 33m 07s
Apparent Declination
-63° 03' 31"
Sunlit
Object is in daylight
Visualization observer readout
Local Sidereal Time
12:17:54
Azimuth
212.743° SW
Elevation
-33.296°
Doppler factor
1
Orbital elements
Apogee altitude
485.781 km
Perigee altitude
484.247 km
Semi-major axis
6,863.151 km
Eccentricity
0.00011
Inclination
42.9993°
RAAN
185.2782°
Arg. of periapsis
285.5105°
True anomaly
Unknown
Mean anomaly
74.5623°
Eccentric anomaly
Unknown
Mean motion
3.81731 °/min
Orbital period
94.31 mins
BSTAR
-0.0000028564
Loading maneuver chart data...
Loading SW <> Apogee altitude chart data...
Loading historical data...
Loading historical data...
Loading historical data...
Loading historical data...
Loading historical data...
Loading historical data...
Loading historical data...

STARLINK-32352 Visibility forecast

Observer location: undefined°, undefined°

Span
Click to sort rows by Start time (UTC) header in descending order
Start Az.
Max El. time (UTC)
Max El. Az.
Max El.
End time (UTC)
End Az.
4 mins2025-07-06 02:16:23.792Z183.647° SSW2025-07-06 02:18:23.792Z149.245° SSE16.949°2025-07-06 02:20:23.792Z110.836° ESE
5 mins2025-07-06 03:55:23.792Z240.301° WSW2025-07-06 03:57:23.792Z124.931° SE43.855°2025-07-06 04:00:23.792Z73.999° E
5 mins2025-07-06 05:34:23.792Z289.48° WNW2025-07-06 05:36:23.792Z2.533° NNE38.361°2025-07-06 05:39:23.792Z71.942° E
5 mins2025-07-06 07:13:23.792Z293.627° NW2025-07-06 07:15:23.792Z357.819° N43.415°2025-07-06 07:18:23.792Z97.729° ESE
5 mins2025-07-06 08:52:23.792Z260.987° W2025-07-06 08:54:23.792Z207.209° SW28.566°2025-07-06 08:57:23.792Z147.694° SSE
|